Weather History for Athens, OH

Change the Weather History Date:

Saturday, December 8, 2012

  Actual Average (KPKB) Record (KPKB)
Temperature  
Mean Temperature 52 °F 37 °F  
Max Temperature 56 °F 45 °F 72 °F (1966)
Min Temperature 49 °F 29 °F 7 °F (1977)
Degree Days  
Heating Degree Days 12 28  
Month to date heating degree days 215  
Since 1 July heating degree days 1200  
Growing Degree Days 2 (Base 50)    
Moisture  
Dew Point 51 °F    
Average Humidity 93    
Maximum Humidity 97    
Minimum Humidity 85    
Precipitation  
Precipitation 0.00 in 0.10 in 0.96 in (2009)
Month to date precipitation 0.84  
Year to date precipitation 38.93  
Sea Level Pressure  
Sea Level Pressure 29.91 in    
Wind  
Wind Speed 4 mph (SW)    
Max Wind Speed 7 mph    
Max Gust Speed -    
Visibility 8 miles    
Events Rain    
T = Trace of Precipitation, MM = Missing Value Source: NWS Daily Summary

Daily Weather History Graph

Daily Weather History Graph

Search for Another Location

Airport:

Trip Planner

Search our weather history database for the weather conditions in past years. The results will help you decide how hot, cold, wet, or windy it might be!

Date:

Astronomy

Dec. 08, 2012 Rise Set
Actual Time 7:36 AM EST 5:05 PM EST
Civil Twilight 7:06 AM EST 5:35 PM EST
Nautical Twilight 6:32 AM EST 6:09 PM EST
Astronomical Twilight 6:00 AM EST 6:41 PM EST
Moon 2:01 AM EST (12/8) 1:33 PM EST (12/8)
Length of Visible Light 10h 29m
Length of Day
9h 29m
Waning Crescent, 28% of the Moon is Illuminated
Dec 8
Waning Crescent
Dec 13
New
Dec 20
First Quarter
Dec 28
Full
Jan 4
Last Quarter

Hourly Weather History & Observations

Time (EST) Temp. Dew Point Humidity Pressure Visibility Wind Dir Wind Speed Gust Speed Precip Events Conditions
12:15 AM 52.7 °F 51.8 °F 97% 29.87 in 7.0 mi SSW 4.6 mph - N/A Rain Light Rain
12:35 AM 52.7 °F 51.8 °F 97% 29.86 in 7.0 mi South 4.6 mph - N/A Rain Light Rain
12:55 AM 52.7 °F 51.8 °F 97% 29.86 in 7.0 mi SSW 5.8 mph - N/A   Light Drizzle
1:15 AM 52.7 °F 51.8 °F 97% 29.86 in 7.0 mi SSW 4.6 mph - N/A   Light Drizzle
1:35 AM 52.9 °F 51.8 °F 96% 29.86 in 5.0 mi WSW 3.5 mph - N/A Rain Rain
1:55 AM 52.7 °F 51.6 °F 96% 29.86 in 7.0 mi SSW 4.6 mph - N/A   Overcast
2:15 AM 52.7 °F 51.8 °F 97% 29.86 in 10.0 mi SSW 3.5 mph - N/A   Overcast
2:35 AM 52.7 °F 51.8 °F 97% 29.86 in 7.0 mi SSW 4.6 mph - N/A   Overcast
2:55 AM 52.7 °F 51.8 °F 97% 29.87 in 7.0 mi South 4.6 mph - N/A   Overcast
3:15 AM 52.7 °F 51.4 °F 95% 29.87 in 7.0 mi SSW 5.8 mph - N/A   Overcast
3:35 AM 52.9 °F 51.8 °F 96% 29.87 in 7.0 mi SSW 5.8 mph - N/A Rain Light Rain
3:55 AM 53.1 °F 51.8 °F 95% 29.86 in 10.0 mi SSW 3.5 mph - N/A   Overcast
4:15 AM 53.1 °F 51.8 °F 95% 29.86 in 7.0 mi SW 3.5 mph - N/A Rain Light Rain
4:35 AM 52.9 °F 51.8 °F 96% 29.87 in 7.0 mi SSW 5.8 mph - N/A Rain Light Rain
4:55 AM 52.9 °F 51.8 °F 96% 29.87 in 7.0 mi SSW 4.6 mph - N/A   Overcast
5:15 AM 53.2 °F 52.0 °F 95% 29.86 in 7.0 mi SSW 3.5 mph - N/A   Overcast
5:35 AM 53.1 °F 51.8 °F 95% 29.87 in 7.0 mi South 4.6 mph - N/A   Overcast
5:55 AM 53.1 °F 51.8 °F 95% 29.87 in 7.0 mi South 4.6 mph - N/A   Overcast
6:15 AM 53.1 °F 52.0 °F 96% 29.87 in 5.0 mi Calm Calm - N/A Rain Light Rain
6:35 AM 52.9 °F 51.8 °F 96% 29.87 in 5.0 mi South 4.6 mph - N/A Rain Light Rain
6:55 AM 52.7 °F 51.8 °F 97% 29.86 in 7.0 mi SSE 3.5 mph - N/A   Overcast
7:15 AM 52.7 °F 51.4 °F 95% 29.88 in 7.0 mi SSW 4.6 mph - N/A   Overcast
7:35 AM 52.9 °F 51.8 °F 96% 29.88 in 7.0 mi SSW 4.6 mph - N/A   Overcast
7:55 AM 52.7 °F 51.8 °F 97% 29.90 in 4.0 mi SW 3.5 mph - N/A Rain Heavy Rain
8:15 AM 52.7 °F 51.6 °F 96% 29.88 in 5.0 mi South 3.5 mph - N/A Rain Light Rain
8:35 AM 52.7 °F 51.8 °F 97% 29.89 in 7.0 mi South 3.5 mph - N/A   Overcast
8:55 AM 52.9 °F 51.8 °F 96% 29.90 in 7.0 mi South 5.8 mph - N/A Rain Rain
9:15 AM 53.1 °F 52.0 °F 96% 29.89 in 3.0 mi Calm Calm - N/A Rain Heavy Rain
9:35 AM 53.2 °F 52.2 °F 96% 29.89 in 4.0 mi Calm Calm - N/A Rain Rain
9:55 AM 53.6 °F 52.5 °F 96% 29.89 in 7.0 mi South 3.5 mph - N/A Rain Light Rain
10:15 AM 54.0 °F 52.9 °F 96% 29.89 in 7.0 mi South 6.9 mph - N/A Rain Rain
10:55 AM 55.4 °F 54.0 °F 95% 29.88 in 10.0 mi SSW 3.5 mph - N/A   Overcast
11:15 AM 55.4 °F 53.8 °F 94% 29.88 in 10.0 mi SSW 3.5 mph - N/A   Overcast
11:55 AM 55.6 °F 53.6 °F 93% 29.87 in 10.0 mi SW 5.8 mph - N/A   Overcast
12:15 PM 55.4 °F 53.8 °F 94% 29.88 in 4.0 mi West 4.6 mph - N/A   Light Drizzle
12:35 PM 54.9 °F 53.2 °F 94% 29.88 in 5.0 mi Calm Calm - N/A Rain Rain
12:55 PM 55.2 °F 53.2 °F 93% 29.87 in 10.0 mi Calm Calm - N/A Rain Light Rain
1:15 PM 55.9 °F 53.6 °F 92% 29.87 in 10.0 mi WNW 3.5 mph - N/A   Overcast
1:35 PM 56.1 °F 53.4 °F 91% 29.87 in 10.0 mi West 3.5 mph - N/A   Overcast
1:55 PM 55.9 °F 53.6 °F 92% 29.87 in 10.0 mi Calm Calm - N/A   Overcast
2:15 PM 55.8 °F 53.6 °F 92% 29.88 in 10.0 mi Calm Calm - N/A   Overcast
2:55 PM 55.4 °F 52.2 °F 89% 29.89 in 10.0 mi West 4.6 mph - N/A   Overcast
3:15 PM 54.7 °F 52.3 °F 92% 29.90 in 10.0 mi Calm Calm - N/A Rain Light Rain
3:35 PM 55.0 °F 52.7 °F 92% 29.90 in 10.0 mi Calm Calm - N/A   Overcast
3:55 PM 55.2 °F 52.7 °F 91% 29.91 in 10.0 mi Calm Calm - N/A   Overcast
4:15 PM 55.0 °F 52.7 °F 92% 29.91 in 10.0 mi Calm Calm - N/A   Overcast
4:35 PM 54.9 °F 52.7 °F 92% 29.93 in 10.0 mi West 3.5 mph - N/A   Overcast
4:55 PM 54.7 °F 52.0 °F 91% 29.93 in 10.0 mi WNW 3.5 mph - N/A   Overcast
5:15 PM 54.5 °F 51.8 °F 91% 29.94 in 10.0 mi Calm Calm - N/A   Overcast
5:35 PM 54.3 °F 50.4 °F 86% 29.94 in 10.0 mi NW 4.6 mph - N/A   Overcast
5:55 PM 53.8 °F 49.3 °F 85% 29.95 in 10.0 mi NW 4.6 mph - N/A   Overcast
6:15 PM 53.1 °F 49.3 °F 87% 29.96 in 10.0 mi Calm Calm - N/A   Overcast
6:35 PM 53.2 °F 49.1 °F 86% 29.97 in 10.0 mi Calm Calm - N/A   Overcast
6:55 PM 52.7 °F 48.7 °F 86% 29.98 in 10.0 mi Calm Calm - N/A   Overcast
7:15 PM 52.7 °F 48.6 °F 86% 29.99 in 10.0 mi Calm Calm - N/A   Overcast
7:55 PM 51.8 °F 49.1 °F 90% 30.00 in 10.0 mi Calm Calm - N/A   Overcast
8:15 PM 51.8 °F 49.1 °F 90% 30.01 in 10.0 mi Calm Calm - N/A   Overcast
8:35 PM 51.8 °F 48.6 °F 89% 30.01 in 10.0 mi North 4.6 mph - N/A   Overcast
8:55 PM 51.8 °F 48.2 °F 88% 30.01 in 10.0 mi North 4.6 mph - N/A   Overcast
9:15 PM 51.1 °F 47.1 °F 86% 30.01 in 10.0 mi NNE 5.8 mph - N/A   Overcast
9:35 PM 50.9 °F 46.6 °F 85% 30.02 in 10.0 mi North 4.6 mph - N/A   Overcast
9:55 PM 50.5 °F 46.6 °F 86% 30.02 in 10.0 mi North 4.6 mph - N/A   Overcast
10:15 PM 50.2 °F 46.4 °F 87% 30.02 in 10.0 mi North 6.9 mph - N/A   Overcast
10:35 PM 50.0 °F 46.4 °F 87% 30.02 in 10.0 mi NNE 5.8 mph - N/A   Overcast
10:55 PM 49.6 °F 46.2 °F 88% 30.02 in 10.0 mi NNE 5.8 mph - N/A   Overcast
11:15 PM 49.5 °F 45.9 °F 87% 30.03 in 10.0 mi NNE 4.6 mph - N/A   Overcast
11:35 PM 49.3 °F 45.7 °F 87% 30.03 in 10.0 mi NNE 6.9 mph - N/A   Overcast
11:55 PM 49.1 °F 45.5 °F 87% 30.03 in 10.0 mi NE 6.9 mph - N/A   Overcast